Flag for Canada Weather past 2 weeks in Chibougamau, Quebec, Canada

Now
28 °F

Passing clouds.


Feels Like: 17 °F
Forecast: 23 / 36 °F
Wind: 14 mph from Northwest

Location: Chibougamau-Chapais


UV Index: 3 (Moderate)

Visibility: 15 mi


Pressure: 30.01 "Hg

Humidity: 69%

Dew point: 19 °F

Location of ChibougamauLocation

Historic Weather in Chibougamau

°F

Chibougamau temperature yesterday

Maximum temperature yesterday: 39 °F (at 1:00 PM)
Minimum temperature yesterday: 32 °F (at 7:00 AM)
Average temperature yesterday: 36 °F

Past Weeks' High & Low Weather Summary

 TemperatureHumidityPressure
High48 °F (Apr 14, 5:00 PM)100% (Apr 14, 6:00 AM)30.73 "Hg (Apr 14, 6:00 AM)
Low-8 °F (Apr 16, 6:00 AM)29% (Apr 20, 2:00 PM)29.23 "Hg (Apr 14, 5:00 PM)
Average29 °F65%29.94 "Hg
* Reported Apr 9 8:00 AM — Apr 24 8:00 AM, Chibougamau, Weather by CustomWeather, © 2014

Note: Actual official high and low records may vary slightly from our data, if they occured in-between our weather recording intervals... More about our weather records

Advertising

Historic Weather Conditions — Data for Previous 24 hours

 ConditionsComfort  
Time TempWeatherWind HumidityBarometerVisibility
8:00 AM
Apr 24
25 °FBroken clouds.15 mph80%29.99 "Hg15 mi
7:00 AM25 °FPartly sunny.12 mph74%29.96 "Hg15 mi
6:00 AM25 °FMostly cloudy.9 mph74%29.96 "Hg15 mi
9:00 PM
Apr 23
32 °FPartly sunny.8 mph51%29.88 "Hg15 mi
8:00 PM34 °FPartly sunny.10 mph51%29.87 "Hg15 mi
7:00 PM36 °FPartly sunny.12 mph48%29.86 "Hg15 mi
6:00 PM36 °FPartly sunny.13 mph52%29.85 "Hg15 mi
5:00 PM37 °FPartly sunny.8 mph48%29.83 "Hg15 mi
4:00 PM39 °FMore clouds than sun.9 mph45%29.81 "Hg15 mi
3:00 PM39 °FMostly cloudy.13 mph48%29.79 "Hg15 mi
2:00 PM39 °FPartly sunny.12 mph52%29.78 "Hg15 mi
1:00 PM39 °FBroken clouds.13 mph52%29.78 "Hg15 mi
12:00 PM37 °FPartly sunny.10 mph65%29.78 "Hg15 mi
11:00 AM36 °FPartly sunny.10 mph75%29.78 "Hg15 mi
10:00 AM36 °FLight snow. Partly sunny.9 mph75%29.79 "Hg15 mi
9:00 AM34 °FLight snow. Overcast.15 mph81%29.79 "Hg10 mi
Weather by CustomWeather, © 2014

See weather overview